Wind_Speed
17 17 17 17 17 17 18 18 18 18 18 18 18 19 20 19 19 19 19 19 20 20 20 20 20 20 20 20 20 21 20 19 19 19 20 20 20 21 21 20 20 20 20
17 18 18 17 17 18 18 18 18 18 18 18 19 20 20 21 20 20 20 20 21 20 20 21 21 21 21 21 21 21 21 21 21 21 21 22 23 23 23 22 23 23 22
18 18 18 19 19 19 19 18 19 19 19 19 20 21 21 22 21 21 21 21 20 21 21 21 22 22 23 23 23 23 23 23 24 24 23 23 24 25 25 24 25 25 25
18 19 19 20 20 20 20 19 19 20 20 21 21 22 22 22 21 22 22 22 21 21 22 22 23 23 24 24 24 24 25 24 25 25 25 25 25 25 26 26 26 27 27
19 19 20 21 21 20 20 19 20 21 21 21 22 22 21 21 21 22 22 22 22 22 23 23 23 24 25 25 25 26 27 27 26 26 26 26 26 26 27 27 28 28 28
19 20 21 20 20 20 20 20 20 21 21 21 21 21 20 20 20 21 21 21 22 22 23 24 25 25 25 26 26 26 27 28 27 27 27 27 27 27 28 29 29 29 29
19 20 20 20 20 20 20 21 20 20 20 20 19 19 19 20 20 20 21 21 21 22 23 23 24 24 24 24 25 26 26 28 28 29 29 29 30 29 29 30 30 31 31
19 20 20 20 19 20 20 20 20 19 19 19 19 20 20 21 21 21 21 22 22 23 23 23 24 24 24 24 25 26 26 27 28 29 29 30 30 31 31 31 31 32 33
18 18 19 20 19 20 20 20 20 20 19 19 20 20 21 21 21 21 21 21 22 22 22 23 23 24 25 25 26 27 28 28 29 28 28 30 31 31 32 32 32 32 33
17 17 18 19 20 20 20 19 19 19 19 19 20 20 21 21 21 20 21 21 21 21 21 22 23 24 26 27 28 28 28 29 29 29 29 30 31 32 32 32 33 33 33
17 17 17 17 19 19 20 19 19 19 19 20 20 20 20 20 20 20 20 20 21 21 22 22 23 25 26 27 28 28 28 30 31 31 30 31 32 33 33 33 33 34 34
18 17 17 17 18 19 19 19 19 19 20 20 20 20 20 20 20 21 20 21 21 22 23 23 24 25 26 27 28 28 29 30 30 31 31 32 33 33 34 35 34 34 34
17 17 17 17 18 19 18 18 19 18 18 19 19 19 19 19 20 21 21 21 22 22 23 24 24 25 25 26 27 28 28 29 30 31 31 32 33 34 34 34 35 35 35
17 17 17 16 16 17 18 18 18 18 18 19 19 18 19 20 21 21 21 21 21 22 23 24 24 25 26 26 26 27 28 28 30 31 32 33 34 33 33 34 34 34 35
16 16 15 14 15 15 17 18 18 18 18 17 18 18 19 20 21 22 22 22 22 23 23 24 24 25 25 26 26 26 27 29 29 30 31 32 33 33 34 35 35 35 36
15 15 14 14 14 15 16 17 17 17 17 18 18 18 19 20 20 21 23 23 24 24 24 24 24 24 24 25 26 27 28 28 29 30 30 31 31 31 33 34 34 34 35
13 13 14 15 15 16 17 17 17 17 18 18 18 19 20 20 20 21 23 23 23 23 24 23 23 23 24 25 26 27 27 28 28 29 29 29 30 31 32 33 33 33 35
14 14 15 15 16 16 17 17 17 17 17 17 18 19 19 20 20 21 22 23 23 23 22 23 23 24 24 26 27 27 27 27 28 28 29 29 30 30 32 33 34 34 34
15 15 16 16 16 16 17 17 17 17 17 18 19 19 19 20 20 20 21 22 22 22 22 23 24 25 26 26 27 27 27 27 28 28 29 29 30 31 31 31 32 33 33
15 16 16 16 16 17 17 18 17 17 18 19 19 19 19 20 20 21 21 21 21 22 23 24 25 25 26 26 27 27 27 27 28 28 29 29 29 30 31 31 31 31 31
15 16 16 17 17 17 18 17 18 18 18 19 19 20 20 20 21 21 21 22 22 23 24 25 25 25 25 26 25 26 26 26 26 27 28 28 29 30 30 30 30 29 29
17 17 17 16 16 17 18 18 19 19 19 19 19 20 20 21 21 21 22 23 24 24 24 25 25 24 24 25 25 26 26 26 26 26 27 27 28 28 29 28 29 28 27
17 17 16 16 16 17 18 19 20 19 19 19 19 20 20 21 21 22 22 23 23 24 24 23 23 23 23 24 25 25 26 26 26 26 27 27 28 27 26 27 27 27 27
16 16 17 18 18 18 19 20 20 19 20 20 20 20 21 21 22 22 23 23 24 23 23 22 22 23 23 24 24 24 24 25 25 26 27 27 28 27 25 25 26 27 27
17 17 17 17 18 19 20 20 20 20 20 20 20 21 22 22 23 23 23 23 23 23 23 22 22 23 23 23 23 23 23 24 25 26 27 27 27 26 25 26 26 27 27
16 17 17 17 18 18 19 19 19 19 19 20 21 22 22 22 23 22 22 22 23 24 24 23 23 23 23 23 24 24 24 24 25 25 26 27 26 25 25 25 26 26 26
Wind_Direction
273 275 279 282 282 283 286 285 282 281 279 280 281 281 281 282 283 281 280 277 275 273 269 267 266 265 264 264 263 259 258 259 259 258 258 256 253 250 250 251 250 250 249
273 274 277 278 282 284 285 284 283 284 283 282 282 281 279 279 282 281 280 278 275 272 269 267 267 267 266 265 264 261 261 261 262 259 259 258 256 253 251 251 251 251 251
271 272 275 277 280 281 282 283 282 284 285 285 283 281 280 279 281 282 283 280 276 272 268 267 267 266 266 265 265 261 261 262 261 258 259 259 257 256 254 253 253 252 251
272 274 275 277 278 279 281 284 285 285 286 286 285 283 280 279 280 283 282 280 276 273 269 268 268 267 265 265 266 263 261 261 260 259 259 259 258 257 255 255 255 254 253
273 274 275 277 276 277 279 282 286 286 286 287 286 285 283 281 281 282 282 279 275 273 271 269 269 267 266 265 266 265 263 262 263 259 258 258 258 257 256 256 256 256 255
275 274 276 275 274 275 278 281 285 287 287 287 286 285 284 283 284 283 282 280 277 275 274 271 270 269 268 267 266 266 265 265 265 262 260 259 257 257 256 257 257 257 256
274 274 275 275 274 276 278 281 285 289 288 286 285 285 284 284 285 283 283 282 279 276 275 272 271 271 270 271 269 267 268 266 266 265 263 262 258 257 257 257 257 257 256
272 272 273 273 277 279 281 282 285 287 287 286 286 287 287 286 286 286 283 280 278 277 275 273 272 271 270 270 271 268 267 266 268 267 266 264 261 259 258 257 258 257 256
272 272 274 276 277 278 278 280 282 285 287 287 288 287 287 288 288 289 286 282 279 277 276 275 273 272 271 271 271 271 268 266 266 266 265 264 263 262 261 260 258 258 256
277 278 277 277 276 277 280 280 282 285 285 286 287 287 288 287 288 290 290 287 282 279 278 276 276 274 273 273 273 274 273 268 268 266 264 264 265 264 264 263 261 257 255
278 282 281 278 277 277 277 277 279 284 283 283 284 286 287 289 291 291 291 289 285 283 281 280 279 278 276 276 275 275 274 271 267 267 266 266 265 265 264 264 262 260 258
277 279 281 278 278 279 279 276 278 282 282 281 282 283 286 289 293 295 293 290 287 286 284 283 282 281 280 279 277 275 274 272 269 268 267 267 267 265 264 263 262 260 259
275 274 277 276 279 282 280 277 279 282 284 284 284 284 286 289 292 294 293 292 290 288 286 286 285 284 283 282 279 275 274 274 271 269 269 268 268 268 265 263 262 260 258
276 277 278 277 281 284 281 280 280 282 282 283 284 286 288 290 293 294 294 294 293 291 289 288 286 284 284 283 280 277 275 275 274 273 271 270 269 269 267 265 264 262 259
280 280 279 279 283 285 283 282 284 283 283 284 286 288 290 292 293 293 294 293 292 291 292 291 289 288 286 284 282 280 277 276 277 277 276 274 271 269 268 267 265 264 262
281 281 281 284 288 288 287 287 286 286 284 284 286 287 290 293 293 294 294 295 294 294 293 294 292 290 288 286 284 282 281 280 281 281 279 276 273 272 270 269 266 265 262
276 276 281 285 287 289 289 288 288 288 288 288 289 290 292 294 295 296 296 296 295 296 296 296 295 293 291 290 288 286 284 282 282 282 280 277 275 275 273 272 269 268 265
275 277 280 281 284 286 288 289 291 293 293 292 293 293 294 296 297 298 299 298 296 296 297 297 297 296 295 293 292 290 288 285 283 282 280 278 277 277 275 272 269 268 267
278 277 278 279 282 286 288 290 294 295 295 296 297 296 296 297 300 301 303 303 300 298 297 298 298 298 296 295 293 292 289 288 286 283 282 281 280 279 278 274 271 268 267
279 278 277 278 283 286 289 292 293 294 295 296 299 300 300 299 299 301 302 303 301 300 299 299 300 300 299 298 296 294 292 290 289 286 285 284 283 283 281 278 274 271 268
284 282 280 279 283 287 290 292 292 292 294 297 299 300 301 302 302 303 302 303 302 301 301 301 302 302 300 299 297 296 295 293 291 289 287 285 285 285 284 282 277 272 269
285 284 284 285 286 288 289 291 291 292 294 297 299 301 302 303 304 306 305 304 304 302 302 302 302 301 300 300 300 301 299 296 293 292 290 289 289 288 286 283 279 273 271
289 287 285 285 287 288 289 292 292 292 294 296 298 300 301 303 306 306 305 306 306 305 304 303 304 304 303 302 302 303 302 298 297 295 293 292 292 290 288 285 279 275 273
292 291 287 287 287 289 292 294 294 294 294 294 296 299 301 303 304 304 304 306 307 308 307 306 305 305 305 305 306 306 303 301 300 298 297 295 293 291 289 288 284 280 276
291 289 289 290 291 292 294 295 296 295 294 294 295 297 300 302 303 303 305 307 308 308 308 308 307 305 306 307 308 308 307 306 303 301 300 299 296 291 287 288 286 283 278
294 295 295 295 296 296 295 296 297 298 296 295 296 298 301 302 303 303 304 306 306 308 309 309 307 306 306 307 308 309 308 308 307 305 304 303 300 294 290 288 287 283 279
Height
5848 5848 5848 5848 5847 5847 5847 5846 5846 5846 5846 5845 5845 5844 5843 5843 5842 5842 5841 5841 5841 5840 5840 5841 5842 5842 5843 5844 5844 5845 5846 5847 5848 5848 5850 5851 5852 5853 5855 5856 5857 5859 5861
5844 5845 5844 5844 5844 5843 5843 5842 5842 5842 5841 5841 5840 5839 5839 5838 5837 5837 5836 5836 5835 5835 5835 5836 5837 5837 5838 5839 5839 5840 5841 5842 5842 5843 5845 5846 5847 5848 5850 5851 5852 5854 5855
5840 5840 5840 5840 5840 5839 5839 5838 5838 5837 5837 5836 5835 5834 5834 5833 5832 5831 5831 5830 5829 5829 5829 5830 5831 5832 5832 5833 5834 5835 5836 5836 5837 5838 5839 5840 5841 5842 5844 5845 5847 5848 5849
5836 5836 5836 5836 5835 5835 5834 5834 5833 5832 5832 5831 5830 5829 5828 5827 5827 5826 5825 5824 5824 5824 5824 5824 5825 5826 5827 5827 5828 5829 5830 5830 5831 5832 5832 5833 5835 5836 5837 5839 5840 5841 5843
5831 5831 5831 5831 5830 5830 5829 5829 5828 5828 5827 5826 5824 5823 5822 5822 5821 5820 5819 5819 5818 5818 5818 5818 5819 5819 5820 5821 5822 5823 5823 5824 5824 5825 5826 5827 5828 5829 5830 5832 5833 5834 5836
5827 5827 5826 5826 5825 5825 5825 5824 5823 5822 5821 5820 5819 5818 5817 5816 5816 5815 5814 5813 5812 5812 5812 5812 5812 5813 5814 5814 5815 5816 5816 5817 5818 5818 5819 5820 5821 5821 5823 5824 5825 5827 5828
5822 5822 5822 5821 5821 5820 5820 5819 5818 5817 5816 5815 5814 5813 5812 5811 5811 5809 5808 5807 5807 5806 5806 5806 5806 5807 5807 5807 5808 5809 5809 5810 5810 5810 5811 5812 5813 5813 5814 5816 5817 5818 5819
5817 5817 5817 5816 5816 5815 5814 5814 5813 5812 5811 5810 5809 5808 5808 5807 5805 5804 5803 5801 5801 5800 5800 5800 5800 5800 5801 5801 5801 5801 5802 5802 5802 5802 5803 5803 5804 5805 5805 5806 5808 5809 5810
5813 5812 5812 5811 5811 5810 5809 5809 5808 5807 5807 5805 5804 5804 5803 5802 5800 5799 5797 5796 5795 5794 5794 5794 5794 5794 5794 5794 5794 5794 5794 5794 5794 5794 5794 5794 5795 5796 5796 5797 5798 5799 5801
5808 5807 5807 5806 5806 5805 5804 5804 5803 5802 5802 5801 5800 5799 5798 5797 5795 5794 5792 5790 5789 5788 5788 5788 5787 5787 5787 5787 5786 5786 5785 5785 5785 5785 5785 5785 5786 5786 5787 5787 5788 5789 5790
5803 5802 5802 5801 5801 5800 5799 5799 5798 5797 5797 5796 5795 5794 5793 5791 5790 5789 5787 5785 5784 5783 5782 5781 5781 5780 5779 5779 5779 5778 5777 5776 5776 5776 5776 5776 5776 5777 5777 5777 5778 5779 5780
5798 5798 5797 5796 5796 5795 5794 5794 5794 5793 5792 5791 5790 5789 5788 5787 5785 5784 5782 5781 5779 5777 5776 5775 5774 5773 5771 5771 5770 5769 5768 5767 5767 5767 5767 5767 5767 5767 5767 5768 5768 5769 5770
5794 5794 5793 5792 5791 5791 5790 5790 5789 5788 5787 5787 5785 5785 5783 5782 5780 5779 5777 5775 5774 5772 5770 5768 5766 5765 5764 5762 5761 5760 5760 5759 5758 5758 5758 5758 5757 5757 5757 5757 5758 5759 5760
5789 5789 5788 5788 5787 5787 5786 5785 5785 5784 5783 5782 5781 5780 5778 5777 5775 5773 5772 5770 5768 5766 5764 5762 5760 5758 5756 5755 5753 5752 5752 5751 5750 5749 5749 5748 5748 5747 5747 5747 5748 5749 5750
5785 5784 5784 5784 5783 5782 5782 5781 5780 5779 5778 5777 5776 5775 5773 5771 5769 5767 5765 5763 5762 5760 5758 5756 5753 5751 5749 5747 5746 5744 5743 5742 5741 5740 5739 5738 5737 5737 5737 5737 5737 5738 5739
5781 5780 5780 5780 5779 5778 5778 5777 5776 5775 5774 5772 5771 5770 5768 5766 5763 5761 5759 5757 5755 5753 5751 5749 5746 5744 5742 5740 5738 5737 5735 5734 5733 5731 5730 5728 5727 5726 5726 5726 5726 5726 5727
5777 5777 5776 5776 5775 5775 5774 5773 5771 5770 5769 5768 5766 5764 5763 5760 5758 5755 5753 5751 5748 5746 5744 5742 5739 5737 5735 5733 5731 5729 5727 5725 5724 5722 5721 5719 5717 5716 5716 5715 5716 5715 5715
5773 5772 5772 5772 5771 5770 5769 5768 5767 5765 5764 5763 5761 5759 5757 5755 5752 5750 5747 5745 5742 5740 5738 5736 5733 5730 5728 5725 5723 5721 5719 5717 5715 5714 5712 5710 5708 5707 5706 5705 5705 5705 5704
5768 5768 5767 5767 5766 5766 5765 5764 5762 5761 5759 5758 5756 5753 5751 5749 5747 5744 5742 5739 5736 5734 5732 5729 5727 5724 5721 5718 5715 5713 5710 5708 5706 5705 5703 5701 5699 5698 5696 5695 5694 5694 5693
5763 5763 5762 5762 5761 5761 5760 5758 5757 5756 5754 5753 5750 5748 5746 5744 5742 5739 5736 5733 5730 5728 5726 5723 5720 5717 5714 5710 5708 5705 5702 5700 5697 5695 5694 5692 5690 5688 5687 5685 5684 5683 5683
5759 5758 5758 5757 5757 5756 5755 5754 5752 5751 5749 5748 5745 5743 5741 5738 5736 5733 5730 5728 5725 5722 5719 5716 5713 5710 5707 5703 5700 5697 5694 5692 5689 5687 5685 5683 5681 5679 5677 5675 5674 5672 5672
5754 5753 5753 5752 5752 5751 5750 5749 5747 5746 5744 5742 5740 5738 5735 5733 5730 5727 5724 5722 5719 5716 5713 5710 5707 5703 5700 5697 5693 5690 5687 5684 5682 5680 5677 5675 5672 5670 5667 5665 5664 5663 5662
5749 5749 5748 5747 5747 5746 5745 5743 5742 5740 5738 5737 5735 5733 5730 5727 5725 5722 5719 5716 5713 5709 5706 5704 5700 5697 5694 5690 5687 5683 5680 5676 5674 5671 5669 5667 5664 5661 5659 5656 5655 5654 5653
5745 5744 5743 5742 5741 5740 5739 5737 5736 5734 5733 5731 5729 5727 5725 5722 5719 5716 5713 5710 5707 5703 5700 5697 5694 5691 5687 5684 5680 5677 5673 5670 5667 5664 5661 5659 5656 5654 5651 5648 5647 5645 5644
5740 5739 5737 5736 5735 5734 5733 5731 5729 5728 5726 5725 5723 5721 5718 5716 5713 5710 5707 5704 5701 5698 5694 5691 5688 5684 5681 5678 5674 5671 5667 5664 5661 5657 5654 5651 5648 5646 5643 5641 5638 5636 5635
5735 5733 5732 5731 5730 5728 5726 5725 5723 5722 5720 5718 5717 5715 5712 5709 5706 5703 5701 5698 5695 5692 5689 5685 5682 5679 5675 5672 5668 5665 5661 5658 5654 5651 5647 5644 5640 5637 5636 5634 5631 5628 5626